When you browse on this site, cookies collect data to enhance your experience and personalize the content and advertising you see.
Visit our Privacy Policy to learn more. By continuing to use the site, you agree to this use of cookies and data.
  • In France
  • List of Countries
  • For 7 days
  • Water Temperature
  • Weather Map
  • Weather Widgets
  • user-avatar
    Login

    Hourly Weather Farim

    Today, 29 May, Friday

    Time Temperature Precipitation Wind Pressure Humidity
    00:00 +27°C° 0 mm 2 mps 757 mmHg 62%
    01:00 +26°C° 0 mm 2 mps 757 mmHg 65%
    02:00 +26°C° 0 mm 2 mps 757 mmHg 68%
    03:00 +25°C° 0 mm 1 mps 757 mmHg 71%
    04:00 +25°C° 0 mm 1 mps 757 mmHg 74%
    05:00 +24°C° 0 mm 1 mps 757 mmHg 77%
    06:00 +27°C° 0 mm 1 mps 757 mmHg 68%
    07:00 +29°C° 0 mm 1 mps 758 mmHg 58%
    08:00 +32°C° 0 mm 1 mps 758 mmHg 48%
    09:00 +35°C° 0 mm 1 mps 758 mmHg 40%
    10:00 +39°C° 0 mm 1 mps 757 mmHg 31%
    11:00 +42°C° 0 mm 1 mps 757 mmHg 23%
    12:00 +45°C° 0 mm 1 mps 756 mmHg 21%
    13:00 +44°C° 0 mm 0 mps 755 mmHg 18%
    14:00 +46°C° 0 mm 0 mps 754 mmHg 16%
    15:00 +47°C° 0 mm 2 mps 754 mmHg 20%
    16:00 +44°C° 0 mm 3 mps 754 mmHg 24%
    17:00 +41°C° 0 mm 5 mps 754 mmHg 29%
    18:00 +37°C° 0 mm 4 mps 754 mmHg 34%
    19:00 +35°C° 0 mm 4 mps 755 mmHg 38%
    20:00 +32°C° 0 mm 4 mps 756 mmHg 43%
    21:00 +30°C° 0 mm 3 mps 756 mmHg 50%
    22:00 +29°C° 0 mm 3 mps 757 mmHg 57%
    23:00 +28°C° 0 mm 2 mps 757 mmHg 63%

    Tomorrow, 30 May, Saturday

    Time Temperature Precipitation Wind Pressure Humidity
    00:00 +27°C° 0 mm 2 mps 757 mmHg 68%
    01:00 +26°C° 0 mm 1 mps 757 mmHg 73%
    02:00 +26°C° 0 mm 1 mps 757 mmHg 78%
    03:00 +25°C° 0 mm 1 mps 757 mmHg 80%
    04:00 +25°C° 0 mm 1 mps 757 mmHg 82%
    05:00 +25°C° 0 mm 1 mps 757 mmHg 84%
    06:00 +27°C° 0 mm 1 mps 757 mmHg 73%
    07:00 +29°C° 0 mm 2 mps 758 mmHg 63%
    08:00 +31°C° 0 mm 2 mps 758 mmHg 52%
    09:00 +35°C° 0 mm 2 mps 758 mmHg 41%
    10:00 +38°C° 0 mm 2 mps 757 mmHg 31%
    11:00 +41°C° 0 mm 2 mps 757 mmHg 21%
    12:00 +43°C° 0 mm 2 mps 756 mmHg 18%
    13:00 +45°C° 0 mm 1 mps 756 mmHg 15%
    14:00 +47°C° 0 mm 1 mps 755 mmHg 12%
    15:00 +45°C° 0 mm 3 mps 755 mmHg 19%
    16:00 +41°C° 0 mm 4 mps 754 mmHg 25%
    17:00 +38°C° 0 mm 6 mps 754 mmHg 32%
    18:00 +35°C° 0 mm 5 mps 755 mmHg 42%
    19:00 +33°C° 0 mm 4 mps 757 mmHg 51%
    20:00 +29°C° 0 mm 4 mps 758 mmHg 61%
    21:00 +29°C° 0 mm 3 mps 758 mmHg 67%
    22:00 +28°C° 0 mm 3 mps 758 mmHg 73%
    23:00 +27°C° 0 mm 3 mps 758 mmHg 79%

    Day after tomorrow, 31 May, Sunday

    Time Temperature Precipitation Wind Pressure Humidity
    00:00 +27°C° 0 mm 3 mps 758 mmHg 81%
    01:00 +27°C° 0 mm 2 mps 757 mmHg 83%
    02:00 +26°C° 0 mm 2 mps 757 mmHg 85%
    03:00 +26°C° 0 mm 2 mps 757 mmHg 84%
    04:00 +25°C° 0 mm 2 mps 757 mmHg 84%
    05:00 +25°C° 0 mm 2 mps 757 mmHg 83%
    06:00 +26°C° 0 mm 2 mps 758 mmHg 76%
    07:00 +27°C° 0 mm 1 mps 758 mmHg 69%
    08:00 +28°C° 0 mm 1 mps 759 mmHg 62%
    09:00 +30°C° 0 mm 1 mps 759 mmHg 55%
    10:00 +32°C° 0 mm 1 mps 759 mmHg 48%
    11:00 +33°C° 0 mm 1 mps 759 mmHg 41%
    12:00 +37°C° 0 mm 2 mps 759 mmHg 35%
    13:00 +40°C° 0 mm 2 mps 758 mmHg 29%
    14:00 +42°C° 0 mm 2 mps 757 mmHg 23%
    15:00 +40°C° 0 mm 3 mps 757 mmHg 28%
    16:00 +39°C° 0 mm 3 mps 757 mmHg 33%
    17:00 +37°C° 0 mm 4 mps 756 mmHg 37%
    18:00 +35°C° 0 mm 4 mps 757 mmHg 41%
    19:00 +34°C° 0 mm 4 mps 758 mmHg 46%
    20:00 +32°C° 0 mm 4 mps 758 mmHg 50%
    21:00 +30°C° 0 mm 3 mps 759 mmHg 50%
    22:00 +29°C° 0 mm 3 mps 759 mmHg 51%
    23:00 +28°C° 0 mm 2 mps 759 mmHg 52%

    1 June, Monday

    Time Temperature Precipitation Wind Pressure Humidity
    00:00 +28°C° 0 mm 2 mps 759 mmHg 54%
    01:00 +27°C° 0 mm 2 mps 759 mmHg 57%
    02:00 +27°C° 0 mm 2 mps 758 mmHg 59%
    03:00 +26°C° 0 mm 1 mps 759 mmHg 63%
    04:00 +25°C° 0 mm 1 mps 759 mmHg 66%
    05:00 +23°C° 0 mm 0 mps 759 mmHg 70%
    06:00 +25°C° 0 mm 0 mps 759 mmHg 60%
    07:00 +28°C° 0 mm 0 mps 760 mmHg 51%
    08:00 +30°C° 0 mm 0 mps 760 mmHg 41%
    09:00 +35°C° 0 mm 1 mps 760 mmHg 34%
    10:00 +39°C° 0 mm 1 mps 760 mmHg 27%
    11:00 +42°C° 0 mm 1 mps 760 mmHg 21%
    12:00 +43°C° 0 mm 1 mps 759 mmHg 19%
    13:00 +45°C° 0 mm 1 mps 758 mmHg 18%
    14:00 +47°C° 0 mm 1 mps 757 mmHg 16%
    15:00 +44°C° 0 mm 1 mps 757 mmHg 20%
    16:00 +42°C° 0 mm 2 mps 757 mmHg 24%
    17:00 +40°C° 0 mm 3 mps 757 mmHg 28%
    18:00 +37°C° 0 mm 4 mps 757 mmHg 35%
    19:00 +35°C° 0 mm 4 mps 758 mmHg 42%
    20:00 +32°C° 0 mm 4 mps 759 mmHg 48%
    21:00 +30°C° 0 mm 4 mps 759 mmHg 48%
    22:00 +30°C° 0 mm 3 mps 759 mmHg 47%
    23:00 +29°C° 0 mm 3 mps 759 mmHg 47%

    2 June, Tuesday

    Time Temperature Precipitation Wind Pressure Humidity
    00:00 +27°C° 0 mm 2 mps 759 mmHg 51%
    01:00 +26°C° 0 mm 2 mps 759 mmHg 55%
    02:00 +25°C° 0 mm 1 mps 758 mmHg 60%
    03:00 +25°C° 0 mm 1 mps 759 mmHg 63%
    04:00 +24°C° 0 mm 1 mps 759 mmHg 65%
    05:00 +23°C° 0 mm 1 mps 759 mmHg 68%
    06:00 +26°C° 0 mm 1 mps 759 mmHg 58%
    07:00 +28°C° 0 mm 2 mps 759 mmHg 48%
    08:00 +30°C° 0 mm 2 mps 759 mmHg 39%
    09:00 +34°C° 0 mm 2 mps 759 mmHg 31%
    10:00 +37°C° 0 mm 2 mps 759 mmHg 24%
    11:00 +40°C° 0 mm 2 mps 759 mmHg 16%
    12:00 +41°C° 0 mm 2 mps 758 mmHg 15%
    13:00 +43°C° 0 mm 2 mps 757 mmHg 14%
    14:00 +45°C° 0 mm 2 mps 757 mmHg 13%
    15:00 +43°C° 0 mm 2 mps 756 mmHg 14%
    16:00 +43°C° 0 mm 2 mps 756 mmHg 14%
    17:00 +42°C° 0 mm 2 mps 756 mmHg 15%
    18:00 +38°C° 0 mm 2 mps 756 mmHg 24%
    19:00 +35°C° 0 mm 3 mps 756 mmHg 33%
    20:00 +30°C° 0 mm 3 mps 757 mmHg 42%
    21:00 +29°C° 0 mm 3 mps 757 mmHg 47%
    22:00 +28°C° 0 mm 3 mps 758 mmHg 53%
    23:00 +27°C° 0 mm 2 mps 758 mmHg 58%

    3 June, Wednesday

    Time Temperature Precipitation Wind Pressure Humidity
    00:00 +26°C° 0 mm 2 mps 757 mmHg 61%
    01:00 +26°C° 0 mm 2 mps 757 mmHg 63%
    02:00 +25°C° 0 mm 2 mps 757 mmHg 65%
    03:00 +25°C° 0 mm 1 mps 757 mmHg 64%
    04:00 +24°C° 0 mm 1 mps 757 mmHg 63%
    05:00 +24°C° 0 mm 1 mps 757 mmHg 61%
    06:00 +26°C° 0 mm 1 mps 758 mmHg 52%
    07:00 +28°C° 0 mm 1 mps 758 mmHg 43%
    08:00 +30°C° 0 mm 1 mps 759 mmHg 34%
    09:00 +34°C° 0 mm 1 mps 758 mmHg 27%
    10:00 +39°C° 0 mm 1 mps 758 mmHg 21%
    11:00 +43°C° 0 mm 2 mps 757 mmHg 14%
    12:00 +45°C° 0 mm 2 mps 757 mmHg 13%
    13:00 +46°C° 0 mm 2 mps 756 mmHg 12%
    14:00 +48°C° 0 mm 2 mps 755 mmHg 10%
    15:00 +47°C° 0 mm 2 mps 754 mmHg 12%
    16:00 +45°C° 0 mm 2 mps 754 mmHg 14%
    17:00 +43°C° 0 mm 2 mps 754 mmHg 16%
    18:00 +39°C° 0 mm 3 mps 755 mmHg 26%
    19:00 +35°C° 0 mm 3 mps 755 mmHg 36%
    20:00 +32°C° 0 mm 4 mps 756 mmHg 46%
    21:00 +29°C° 0 mm 4 mps 756 mmHg 52%
    22:00 +28°C° 0 mm 3 mps 757 mmHg 57%
    23:00 +27°C° 0 mm 3 mps 758 mmHg 63%
    Show more